Hourly Data Report for August 15, 2022

CLYDE RIVER A
NUNAVUT
Current Station Operator: NAVCAN

70°29'09.000" N
68°31'01.000" W
26.50 m
2400804
71090
YCY

Download Data

Hourly Data (August 2022)
Hourly Data Report for August 15, 2022
TIME
LST
Temp Definition
°C
Dew Point Definition
°C
Rel Hum Definition
%
Precip. Amount Definition
mm

Wind Dir Definition
10's deg

Wind Spd Definition
km/h
Visibility Definition
km
Stn Press Definition
kPa
Hmdx Definition


Wind Chill Definition


Weather Definition


00:00 1.5 1.5 100 0.0 35 17 0.8 99.97     Rain, Fog
01:00 1.6 1.6 100 0.0 LegendMM 4 1.6 99.98     Fog
02:00 2.3 2.3 100 0.0 34 17 16.1 99.95     LegendNANA
03:00 3.5 3.4 99 0.0 31 13 16.1 99.97     LegendNANA
04:00 2.7 2.7 100 0.0 24 8 16.1 99.99     LegendNANA
05:00 2.5 2.5 100 0.0 25 11 2.4 99.99     Fog
06:00 3.0 3.0 100 0.0 25 11 16.1 99.97     LegendNANA
07:00 3.8 3.4 97 0.0 26 5 16.1 99.98     LegendNANA
08:00 5.2 4.2 93 0.0 23 5 16.1 99.98     LegendNANA
09:00 6.8 5.2 90 0.0 13 8 16.1 99.98     LegendNANA
10:00 5.4 4.4 93 0.0 13 11 16.1 99.98     LegendNANA
11:00 5.8 4.3 90 0.0 12 11 16.1 99.96     LegendNANA
12:00 7.0 5.0 87 0.0 12 8 16.1 99.94     LegendNANA
13:00 7.8 5.4 85 0.0 4 8 16.1 99.92     LegendNANA
14:00 7.9 4.9 81 0.0 2 13 16.1 99.93     LegendNANA
15:00 7.2 4.9 85 0.0 4 13 16.1 99.97     LegendNANA
16:00 5.9 4.2 89 0.0 36 15 16.1 100.01     LegendNANA
17:00 5.3 4.1 92 0.0 34 15 16.1 100.04     LegendNANA
18:00 5.4 4.3 93 0.0 34 22 16.1 100.05     LegendNANA
19:00 5.1 3.8 91 0.0 32 26 16.1 100.06     LegendNANA
20:00 4.7 4.4 98 0.0 32 30 6.4 100.09     Fog
21:00 4.4 4.0 97 0.0 33 35 16.1 100.07     LegendNANA
22:00 4.2 3.9 98 0.0 32 34 4.8 100.06     Rain, Fog
23:00 4.3 4.0 98 0.0 32 34 4.8 100.07     Rain, Fog

Notes on Data Quality.

Legend

  • E = Estimated
  • M = Missing
  • NA = Not Available*
  • [empty] = Indicates an unobserved value
Date modified: